Regional Weather Roundup
Issued by NWS

Home | Current Version | Previous Version | Text Only | Print | Product List | Glossary On
Versions: 1 2 3 4 5 6 7 8 9 10 11 12 13 14 15 16 17 18 19 20 21 22 23 24 25 26 27 28 29 30 31 32 33 34 35 36 37 38 39 40 41 42 43 44 45 46 47 48 49 50
000
ASUS45 KBOU 251207
RWRCO

WEATHER ROUNDUP FOR COLORADO
NATIONAL WEATHER SERVICE DENVER/BOULDER CO
600 AM MDT FRI JUL 25 2014

NOTE: "FAIR" INDICATES FEW OR NO CLOUDS BELOW 12000 FEET WITH NO
SIGNIFICANT WEATHER AND/OR OBSTRUCTIONS TO VISIBILITY.

COZ001>005-013-030-031-251300-
...NORTHWEST COLORADO...

CITY           SKY/WX    TMP DP  RH WIND       PRES   REMARKS
CRAIG          MOCLDY    52  52 100 SE7       30.21S
HAYDEN         MOCLDY    61  46  59 E10       30.25S
MEEKER         PTCLDY    55  50  83 NE6       30.23R
MOUNT WERNER   NOT AVBL
STEAMBOAT SPGS MOCLDY    58  50  76 CALM      30.28S
WALDEN         MOCLDY    55  43  62 SE13G23   30.33F
$$

COZ006>008-011-251300-
...WEST CENTRAL VALLEYS...

CITY           SKY/WX    TMP DP  RH WIND       PRES   REMARKS
GRAND JUNCTION MOCLDY    68  55  63 SE10      30.12S
MONTROSE       PTCLDY    61  50  67 CALM      30.23R
EAGLE          MOCLDY    54  54 100 CALM      30.35R
RIFLE          MOCLDY    62  49  62 CALM      30.21R
DELTA          PTCLDY    66  53  62 NE5       30.19R
NUCLA          PTCLDY    63  50  63 SE6       30.26S
$$

COZ017>023-064>068-251300-
...SOUTHWEST COLORADO...

CITY           SKY/WX    TMP DP  RH WIND       PRES   REMARKS
DURANGO        MOCLDY    63  50  62 CALM      30.28R
CORTEZ         CLEAR     67  52  58 NE6       30.22S
PAGOSA SPRINGS MOCLDY    58  49  71 CALM      30.36S
TELLURIDE      MOCLDY    54  50  87 SE7       30.47S
WOLF CREEK PAS NOT AVBL
$$

COZ009-010-012-014-032>034-037-058>063-251300-
...CENTRAL COLORADO...

CITY           SKY/WX    TMP DP  RH WIND       PRES   REMARKS
ASPEN          PTCLDY    51  46  83 S7        30.36R
BUENA VISTA    PTCLDY    57  45  63 W3        30.36R
COPPER MTN     MOCLDY    54  37  54 SW5       30.68R
BERTHOUD PASS  FAIR      45  32  61 NW16      30.71R
COTTONWOOD PAS PTCLDY    61  43  51 W13G18    30.49S
GUNNISON       PTCLDY    52  45  76 W3        30.42R
KREMMLING      PTCLDY    52  43  71 S6        30.38S
LEADVILLE      MOCLDY    45  40  82 NE5       30.50R
MONARCH PASS   MOCLDY    48  37  66 W25       30.76R
SALIDA         PTCLDY   N/A N/A N/A N8        30.39S
SUNLIGHT       PTCLDY    52  45  76 CALM      30.59R
WILKERSON PASS MOCLDY    54  36  50 NW9       30.62R
$$

COZ069>075-251300-
...SAN LUIS VALLEY/SANGRE DE CRISTO MOUNTAINS...

CITY           SKY/WX    TMP DP  RH WIND       PRES   REMARKS
ALAMOSA        MOCLDY    58  52  80 CALM      30.34S
LA VETA PASS   PTCLDY    54  43  66 SW10G18   30.48S
SAGUACHE       MOCLDY    54  50  87 NW7       30.39R
$$

COZ035-036-038>040-251300-
...NORTHERN COLORADO FRONT RANGE...

CITY           SKY/WX    TMP DP  RH WIND       PRES   REMARKS
DENVER INTL AP MOCLDY    71  49  45 SW8       30.07R
DMNS CITY PARK   N/A     70  50  49 S6        30.07R
AURORA         MOCLDY    68  50  52 S6        30.11R
FRONT RANGE AP NOT AVBL
ERIE MUNI ARPT MOCLDY    63  49  59 SW5       30.05R
BOULDER MUN AP MOCLDY    72  46  40 CALM      30.06R
CENTENNIAL     MOCLDY    71  45  39 W5        30.12R
BROOMFIELD     MOCLDY    72  45  37 CALM      30.09S
FORT COLLINS   PTCLDY    66  55  68 NE5       30.05R
LONGMONT       PTCLDY    65  54  65 CALM      30.06S
$$

COZ041-046-047-076>085-087-088-251300-
...PIKES PEAK/PALMER DIVIDE AND SOUTHERN FOOTHILLS...

CITY           SKY/WX    TMP DP  RH WIND       PRES   REMARKS
COLO. SPRINGS  MOCLDY    68  48  48 NW9       30.15S
A. F. ACADEMY  MOCLDY    63  50  61 NE8       30.18S
ELLICOTT       MOCLDY    64  49  57 N7        30.13R
FALCON         MOCLDY    66  46  48 NW7       30.20S
FORT CARSON    MOCLDY    65  49  55 N8        30.11S
LIMON          PTCLDY    57  54  89 N9        30.08R
MONUMENT HILL  MOCLDY    59  46  63 W10       30.21S
TRINIDAD       PTCLDY    65  48  54 W9        30.13S
$$

COZ042>045-048>051-090-091-251300-
...NORTHEAST COLORADO...

CITY           SKY/WX    TMP DP  RH WIND       PRES   REMARKS
GREELEY ARPT   MOCLDY    61  52  72 W5        30.03R
AKRON          MOCLDY    68  53  58 W14       30.00R
BURLINGTON     PTCLDY    70  53  54 W13       29.95S
WRAY             N/A     64  56  74 W6        29.91S
STERLING       MOCLDY    61  59  94 S5        29.95S
HOLYOKE        CLEAR     66  57  72 W9        29.91R
FORT MORGAN    MOCLDY    59  54  82 W7        30.02R
$$

COZ086-089-092>099-251300-
...SOUTHEAST COLORADO...

CITY           SKY/WX    TMP DP  RH WIND       PRES   REMARKS
PUEBLO         PTCLDY    72  52  49 N5        30.03R
LA JUNTA       PTCLDY    74  50  42 SW8       29.99S
LAMAR          MOCLDY    74  53  48 W9        29.93S
SPRINGFIELD      N/A     67  48  50 S9        30.02S
$$


USA.gov is the U.S. government's official web portal to all federal, state and local government web resources and services.